TimeEST,TemperatureF,Dew PointF,Humidity,Sea Level PressureIn,VisibilityMPH,Wind Direction,Wind SpeedMPH,Gust SpeedMPH,PrecipitationIn,Events,Conditions,WindDirDegrees,DateUTC
12:15 AM,32.0,32.0,100,30.10,10.0,Calm,Calm,-,N/A,,Clear,0,2012-12-28 05:15:00
12:35 AM,32.0,32.0,100,30.10,10.0,Calm,Calm,-,N/A,,Clear,0,2012-12-28 05:35:00
12:55 AM,32.0,32.0,100,30.10,10.0,Calm,Calm,-,N/A,,Clear,0,2012-12-28 05:55:00
1:15 AM,32.0,32.0,100,30.10,10.0,Calm,Calm,-,N/A,,Clear,0,2012-12-28 06:15:00
1:35 AM,32.0,32.0,100,30.10,7.0,Calm,Calm,-,N/A,,Clear,0,2012-12-28 06:35:00
1:55 AM,32.0,32.0,100,30.10,10.0,Calm,Calm,-,N/A,,Clear,0,2012-12-28 06:55:00
2:15 AM,32.0,32.0,100,30.11,7.0,Calm,Calm,-,N/A,,Clear,0,2012-12-28 07:15:00
2:35 AM,32.0,32.0,100,30.12,10.0,Calm,Calm,-,N/A,,Clear,0,2012-12-28 07:35:00
2:55 AM,32.0,32.0,100,30.11,7.0,Calm,Calm,-,N/A,,Clear,0,2012-12-28 07:55:00
3:15 AM,30.2,30.2,100,30.11,7.0,Calm,Calm,-,N/A,,Clear,0,2012-12-28 08:15:00
3:35 AM,32.0,32.0,100,30.12,7.0,Calm,Calm,-,N/A,,Clear,0,2012-12-28 08:35:00
3:55 AM,32.0,32.0,100,30.11,10.0,Calm,Calm,-,N/A,,Clear,0,2012-12-28 08:55:00
4:15 AM,32.0,32.0,100,30.12,10.0,Calm,Calm,-,N/A,,Clear,0,2012-12-28 09:15:00
4:35 AM,32.0,32.0,100,30.11,10.0,Calm,Calm,-,N/A,,Clear,0,2012-12-28 09:35:00
4:55 AM,30.2,30.2,100,30.11,10.0,Calm,Calm,-,N/A,,Clear,0,2012-12-28 09:55:00
5:15 AM,30.2,30.2,100,30.12,10.0,Calm,Calm,-,N/A,,Clear,0,2012-12-28 10:15:00
5:35 AM,30.2,30.2,100,30.12,7.0,Calm,Calm,-,N/A,,Clear,0,2012-12-28 10:35:00
5:55 AM,32.0,32.0,100,30.14,10.0,Calm,Calm,-,N/A,,Clear,0,2012-12-28 10:55:00
6:15 AM,30.2,30.2,100,30.15,10.0,Calm,Calm,-,N/A,,Clear,0,2012-12-28 11:15:00
7:15 AM,30.2,30.2,100,30.14,7.0,Calm,Calm,-,N/A,,Clear,0,2012-12-28 12:15:00
7:35 AM,30.2,30.2,100,30.14,10.0,Calm,Calm,-,N/A,,Clear,0,2012-12-28 12:35:00
7:55 AM,30.2,30.2,100,30.14,7.0,Calm,Calm,-,N/A,,Clear,0,2012-12-28 12:55:00
8:15 AM,32.0,32.0,100,30.13,7.0,Calm,Calm,-,N/A,,Clear,0,2012-12-28 13:15:00
8:35 AM,32.0,32.0,100,30.13,10.0,Calm,Calm,-,N/A,,Clear,0,2012-12-28 13:35:00
8:55 AM,32.0,32.0,100,30.14,10.0,Calm,Calm,-,N/A,,Clear,0,2012-12-28 13:55:00
9:15 AM,33.8,33.8,100,30.14,10.0,Calm,Calm,-,N/A,,Clear,0,2012-12-28 14:15:00
9:35 AM,35.6,35.6,100,30.14,10.0,Calm,Calm,-,N/A,,Clear,0,2012-12-28 14:35:00
9:55 AM,37.4,37.4,100,30.14,10.0,Calm,Calm,-,N/A,,Clear,0,2012-12-28 14:55:00
10:15 AM,37.4,35.6,93,30.14,10.0,Calm,Calm,-,N/A,,Clear,0,2012-12-28 15:15:00
10:35 AM,39.2,37.4,93,30.14,10.0,Calm,Calm,-,N/A,,Clear,0,2012-12-28 15:35:00
11:15 AM,41.0,35.6,81,30.15,10.0,Calm,Calm,-,N/A,,Clear,0,2012-12-28 16:15:00
11:35 AM,42.8,37.4,81,30.13,10.0,Calm,Calm,-,N/A,,Clear,0,2012-12-28 16:35:00
11:55 AM,42.8,35.6,76,30.12,10.0,Calm,Calm,-,N/A,,Clear,0,2012-12-28 16:55:00
12:15 PM,42.8,35.6,76,30.11,10.0,Calm,Calm,-,N/A,,Scattered Clouds,0,2012-12-28 17:15:00
12:55 PM,44.6,33.8,66,30.08,10.0,Calm,Calm,-,N/A,,Scattered Clouds,0,2012-12-28 17:55:00
1:15 PM,46.4,33.8,62,30.07,10.0,Calm,Calm,-,N/A,,Mostly Cloudy,0,2012-12-28 18:15:00
1:35 PM,46.4,33.8,62,30.06,10.0,Calm,Calm,-,N/A,,Mostly Cloudy,0,2012-12-28 18:35:00
1:55 PM,46.4,32.0,57,30.06,10.0,Calm,Calm,-,N/A,,Mostly Cloudy,0,2012-12-28 18:55:00
2:15 PM,48.2,33.8,58,30.06,10.0,Calm,Calm,-,N/A,,Overcast,0,2012-12-28 19:15:00
2:35 PM,50.0,32.0,50,30.05,10.0,Calm,Calm,-,N/A,,Mostly Cloudy,0,2012-12-28 19:35:00
2:55 PM,50.0,32.0,50,30.05,10.0,Calm,Calm,-,N/A,,Mostly Cloudy,0,2012-12-28 19:55:00
3:15 PM,51.8,33.8,50,30.04,10.0,East,3.5,-,N/A,,Overcast,100,2012-12-28 20:15:00
3:35 PM,50.0,33.8,54,30.04,10.0,East,4.6,-,N/A,,Overcast,100,2012-12-28 20:35:00
3:55 PM,50.0,33.8,54,30.03,10.0,ESE,4.6,-,N/A,,Overcast,120,2012-12-28 20:55:00
4:15 PM,51.8,33.8,50,30.03,10.0,ESE,4.6,-,N/A,,Overcast,110,2012-12-28 21:15:00
4:35 PM,51.8,33.8,50,30.03,10.0,East,3.5,-,N/A,,Overcast,90,2012-12-28 21:35:00
4:55 PM,50.0,35.6,58,30.04,10.0,East,3.5,-,N/A,,Scattered Clouds,90,2012-12-28 21:55:00
5:15 PM,50.0,35.6,58,30.03,10.0,Calm,Calm,-,N/A,,Clear,0,2012-12-28 22:15:00
5:35 PM,46.4,35.6,66,30.03,10.0,Calm,Calm,-,N/A,,Clear,0,2012-12-28 22:35:00
5:55 PM,46.4,35.6,66,30.03,10.0,Calm,Calm,-,N/A,,Clear,0,2012-12-28 22:55:00
6:15 PM,46.4,35.6,66,30.02,10.0,East,3.5,-,N/A,,Clear,100,2012-12-28 23:15:00
6:35 PM,44.6,35.6,71,30.02,10.0,East,3.5,-,N/A,,Clear,100,2012-12-28 23:35:00
6:55 PM,44.6,35.6,71,30.01,10.0,ESE,3.5,-,N/A,,Clear,120,2012-12-28 23:55:00
7:15 PM,42.8,35.6,76,30.02,10.0,Calm,Calm,-,N/A,,Clear,0,2012-12-29 00:15:00
7:35 PM,42.8,37.4,81,30.02,10.0,Calm,Calm,-,N/A,,Clear,0,2012-12-29 00:35:00
7:55 PM,41.0,41.0,100,30.02,10.0,Calm,Calm,-,N/A,,Scattered Clouds,0,2012-12-29 00:55:00
8:15 PM,42.8,42.8,100,30.01,10.0,Calm,Calm,-,N/A,,Mostly Cloudy,0,2012-12-29 01:15:00
8:35 PM,42.8,42.8,100,29.98,10.0,East,4.6,-,N/A,,Overcast,100,2012-12-29 01:35:00
8:55 PM,44.6,41.0,87,30.00,10.0,Calm,Calm,-,N/A,,Scattered Clouds,0,2012-12-29 01:55:00
9:15 PM,44.6,41.0,87,29.99,10.0,Calm,Calm,-,N/A,,Scattered Clouds,0,2012-12-29 02:15:00
9:35 PM,42.8,41.0,93,29.96,10.0,East,4.6,-,N/A,,Clear,80,2012-12-29 02:35:00
9:55 PM,42.8,41.0,93,29.97,10.0,Calm,Calm,-,N/A,,Scattered Clouds,0,2012-12-29 02:55:00
10:15 PM,42.8,42.8,100,29.95,10.0,Calm,Calm,-,N/A,,Scattered Clouds,0,2012-12-29 03:15:00
10:35 PM,44.6,42.8,93,29.93,10.0,Calm,Calm,-,N/A,,Mostly Cloudy,0,2012-12-29 03:35:00
10:55 PM,44.6,42.8,93,29.93,10.0,East,4.6,-,N/A,,Scattered Clouds,100,2012-12-29 03:55:00
11:15 PM,44.6,42.8,93,29.93,10.0,Calm,Calm,-,N/A,,Mostly Cloudy,0,2012-12-29 04:15:00
11:35 PM,46.4,42.8,87,29.90,10.0,ESE,3.5,-,N/A,,Light Drizzle,110,2012-12-29 04:35:00